Location: Auttagershofen
(48.1940°N, 10.0237°E)
Time: 23:06:32
(UTC+00:00)

Cosmos 2074 Rocket - Pass Details

Date: 18 January 2026
Orbit: 965 x 986 km, 82.9° (Epoch: 16 February)

Event Time Altitude Azimuth Distance (km) Brightness Sun altitude
Rises 05:13:59 0° 205° (SSW) 3,683 6.9 -17.8°
Reaches altitude 10° 05:16:35 10° 210° (SSW) 2,738 6.2 -17.4°
Maximum altitude 05:22:39 50° 285° (WNW) 1,246 4.1 -16.4°
Drops below altitude 10° 05:28:46 10° 0° (N) 2,749 6.2 -15.4°
Sets 05:31:24 0° 6° (N) 3,699 7.0 -15.0°
